Notices

What's New in latest Release from April 7th, 2021:

- Updated Glossary, including Speed of Maximum Gust, and Total Hourly Precipitation

- Updated national and regional climate services offices contacts and prices information

- Addition of station inventory lists for 1981-2010, 1971-2000, and 1961-1990 Normals.

If you haven't already, please take our survey and provide feedback about our website: https://eccc.sondage-survey.ca/f/LanguageSelection.aspx?s=442ca660-fcf1-47c0-95a9-59707d6fd709

Hourly Data Report for July 05, 2019

TORONTO CITY
ONTARIO
Current Station Operator: ECCC - MSC

43°40'00.000" N
79°24'00.000" W
112.50 m
6158355
71508
XTO

Download Data

Hourly Data (July 2019)
Hourly Data Report for July 5, 2019
TIME
LST
Temp Definition
°C
Dew Point Definition
°C
Rel Hum Definition
%
Precip. Amount Definition
mm

Wind Dir Definition
10's deg

Wind Spd Definition
km/h
Visibility Definition
km
Stn Press Definition
kPa
Hmdx Definition


Wind Chill Definition


Weather Definition


00:00 23.4 17.6 70 0.0       100.30 29   LegendNANA
01:00 22.9 17.3 71 0.0       100.28 28   LegendNANA
02:00 22.5 17.1 71 0.0       100.29 28   LegendNANA
03:00 22.5 17.7 75 0.0       100.28 28   LegendNANA
04:00 21.6 17.7 78 0.0       100.29 27   LegendNANA
05:00 21.6 17.9 80 0.0       100.28 28   LegendNANA
06:00 22.3 17.3 74 0.0       100.33 28   LegendNANA
07:00 23.6 18.7 74 0.0       100.37 30   LegendNANA
08:00 26.0 18.9 65 0.0       100.39 33   LegendNANA
09:00 27.0 19.4 63 0.0       100.38 34   LegendNANA
10:00 28.1 19.0 58 0.0       100.37 35   LegendNANA
11:00 28.1 19.8 61 0.0       100.35 36   LegendNANA
12:00 29.4 20.5 59 0.0       100.33 37   LegendNANA
13:00 29.9 20.0 56 0.0       100.27 37   LegendNANA
14:00 28.0 20.3 63 0.0       100.22 36   LegendNANA
15:00 28.5 18.8 56 0.0       100.17 35   LegendNANA
16:00 28.5 19.6 59 0.0       100.12 36   LegendNANA
17:00 30.1 18.8 51 0.0       100.02 37   LegendNANA
18:00 29.4 18.8 53 0.0       100.02 36   LegendNANA
19:00 27.1 20.0 65 0.0       100.04 35   LegendNANA
20:00 27.0 20.1 66 0.0       100.07 35   LegendNANA
21:00 26.9 20.5 68 0.0       100.11 35   LegendNANA
22:00 26.5 19.8 67 0.0       100.08 34   LegendNANA
23:00 26.2 19.7 67 0.0       100.05 34   LegendNANA

Notes on Data Quality.

Legend

  • E = Estimated
  • M = Missing
  • NA = Not Available*
  • [empty] = Indicates an unobserved value
Date modified: